CW5306 Weather Reports


time (UTC)temp
C
wind
direction
speed
KPH
gust
KPH
rain 1hr
cm
rain 24hr
cm
rain mn
cm
humidity
%
barometer
mb
20260831234216 28 50 20.9 33.8 0.00 0.43 0.05 71 1016.1
20260831233715 28 68 16.1 30.6 0.00 0.43 0.05 71 1016.2
20260831233216 28 75 24.1 32.2 0.00 0.43 0.05 70 1016.1
20260831232716 28 56 17.7 33.8 0.00 0.43 0.05 70 1016.3
20260831232216 28 41 19.3 33.8 0.00 0.43 0.05 70 1016.3
20260831231716 28 101 0.0 32.2 0.00 0.43 0.05 71 1016.4
20260831231216 28 90 22.5 33.8 0.00 0.43 0.05 71 1016.6
20260831230717 28 89 17.7 33.8 0.00 0.43 0.05 74 1016.7
20260831230215 28 98 11.3 37.0 0.00 0.43 0.05 71 1017.0
20260831225715 28 115 9.7 37.0 0.00 0.43 0.05 69 1016.8
20260831225215 28 90 9.7 30.6 0.00 0.43 0.05 70 1016.7
20260831224716 28 105 19.3 30.6 0.00 0.43 0.05 70 1016.9
20260831224215 28 75 17.7 37.0 0.00 0.43 0.05 71 1016.8
20260831223946 28 97 19.3 37.0 0.00 0.43 0.05 71 1017.1
20260831223215 28 114 12.9 27.4 0.00 0.43 0.05 70 1017.2
20260831222947 28 113 11.3 27.4 0.00 0.43 0.05 72 1017.1
20260831222215 28 110 12.9 32.2 0.00 0.43 0.05 70 1017.4
20260831221715 28 98 11.3 32.2 0.00 0.43 0.05 70 1017.2
20260831221215 28 73 16.1 27.4 0.00 0.43 0.05 71 1017.3
20260831220946 28 64 11.3 27.4 0.00 0.43 0.05 71 1017.3
20260831220215 28 88 16.1 30.6 0.00 0.43 0.05 71 1017.4
20260831215716 28 78 17.7 32.2 0.00 0.43 0.05 70 1017.3
20260831215216 28 82 9.7 32.2 0.00 0.43 0.05 71 1017.3
20260831214715 28 99 12.9 27.4 0.00 0.43 0.05 71 1017.5
20260831214216 28 87 9.7 27.4 0.00 0.43 0.05 71 1017.4
20260831213716 28 94 8.0 27.4 0.00 0.43 0.05 72 1017.6
20260831213216 28 69 9.7 32.2 0.00 0.43 0.05 71 1017.5
20260831212716 28 144 3.2 32.2 0.00 0.43 0.05 71 1017.7
20260831212447 28 132 12.9 32.2 0.00 0.43 0.05 71 1017.6
20260831211715 28 70 8.0 32.2 0.00 0.43 0.05 73 1017.8
20260831211215 28 102 9.7 33.8 0.00 0.43 0.05 72 1017.7
20260831210715 28 123 1.6 33.8 0.00 0.43 0.05 71 1017.8
20260831210215 28 91 16.1 30.6 0.00 0.43 0.05 71 1017.6
20260831205715 28 82 17.7 30.6 0.00 0.43 0.05 72 1017.5
20260831205447 28 91 17.7 30.6 0.00 0.43 0.05 72 1017.7
20260831204703 28 116 19.3 30.6 0.00 0.43 0.05 70 1017.5
20260831204203 27 105 19.3 27.4 0.00 0.43 0.05 71 1017.8
20260831203703 27 59 14.5 33.8 0.00 0.43 0.05 73 1017.8
20260831203204 27 128 16.1 33.8 0.00 0.43 0.05 71 1017.8
20260831202703 27 66 22.5 38.6 0.00 0.43 0.05 71 1017.9
20260831202203 27 100 9.7 38.6 0.00 0.43 0.05 74 1017.7
20260831201703 27 64 14.5 30.6 0.00 0.43 0.05 73 1017.7
20260831201204 27 118 14.5 38.6 0.00 0.43 0.05 73 1017.7
20260831200935 27 93 22.5 38.6 0.00 0.43 0.05 71 1017.5
20260831200436 27 120 20.9 37.0 0.00 0.43 0.05 72 1017.7
20260831195704 27 67 9.7 32.2 0.00 0.43 0.05 73 1017.5
20260831195204 27 83 17.7 33.8 0.00 0.43 0.05 72 1017.6
20260831194934 27 90 8.0 38.6 0.00 0.43 0.05 72 1017.6
20260831194204 27 76 24.1 33.8 0.00 0.43 0.05 73 1017.6
20260831193703 27 61 14.5 27.4 0.00 0.43 0.05 73 1017.4
20260831193205 27 94 11.3 30.6 0.00 0.43 0.05 75 1017.7
20260831192703 27 92 17.7 33.8 0.00 0.43 0.05 74 1017.7
20260831192203 27 138 12.9 33.8 0.00 0.43 0.05 74 1017.6
20260831191704 27 64 17.7 37.0 0.00 0.43 0.05 74 1017.5
20260831191204 27 76 6.4 37.0 0.00 0.43 0.05 75 1017.6
20260831190704 27 93 0.0 32.2 0.00 0.43 0.05 75 1017.8
20260831190203 27 101 8.0 32.2 0.00 0.43 0.05 76 1017.6
20260831185703 27 76 16.1 30.6 0.00 0.43 0.05 76 1017.5
20260831185203 27 90 12.9 30.6 0.00 0.43 0.05 75 1017.6
20260831184704 27 77 17.7 38.6 0.00 0.43 0.05 75 1017.6
20260831184204 26 72 8.0 38.6 0.00 0.43 0.05 75 1017.3
20260831183703 26 105 12.9 32.2 0.00 0.43 0.05 74 1017.5
20260831183311 26 96 12.9 37.0 0.00 0.43 0.05 75 1017.2
20260831183203 26 135 9.7 30.6 0.00 0.43 0.05 75 1017.5
20260831182935 26 88 17.7 32.2 0.00 0.43 0.05 74 1017.3
20260831181709 26 109 0.0 27.4 0.00 0.43 0.05 77 1017.1
20260831181703 26 55 17.7 37.0 0.00 0.43 0.05 75 1017.4
20260831180703 26 93 12.9 27.4 0.00 0.43 0.05 76 1017.4
20260831180203 26 61 0.0 27.4 0.00 0.43 0.05 76 1017.1
20260831175703 26 103 12.9 27.4 0.00 0.43 0.05 75 1017.2
20260831175203 26 46 9.7 30.6 0.00 0.43 0.05 76 1017.2
20260831174935 26 110 1.6 30.6 0.00 0.43 0.05 77 1017.2
20260831174204 26 52 14.5 30.6 0.00 0.43 0.05 77 1017.2
20260831173704 26 103 11.3 30.6 0.00 0.43 0.05 78 1017.1
20260831173153 26 101 22.5 30.6 0.00 0.43 0.05 78 1016.9
20260831172652 26 84 9.7 27.4 0.00 0.43 0.05 77 1016.9
20260831172152 26 92 0.0 33.8 0.00 0.43 0.05 77 1016.7
20260831171651 26 67 8.0 33.8 0.00 0.43 0.05 76 1017.0
20260831171152 26 96 12.9 33.8 0.00 0.43 0.05 77 1016.7
20260831170652 25 89 17.7 33.8 0.00 0.43 0.05 76 1016.5
20260831170424 25 123 16.1 30.6 0.00 0.43 0.05 76 1016.6
20260831165651 26 89 17.7 30.6 0.00 0.43 0.05 76 1016.6
20260831165139 26 88 14.5 33.8 0.00 0.43 0.05 77 1016.5
20260831164639 25 138 14.5 37.0 0.00 0.43 0.05 77 1016.6
20260831164140 25 75 17.7 37.0 0.00 0.43 0.05 78 1016.6
20260831163640 25 34 14.5 30.6 0.00 0.43 0.05 77 1016.5
20260831163140 25 107 12.9 30.6 0.00 0.43 0.05 78 1016.4
20260831162640 25 105 12.9 33.8 0.00 0.43 0.05 77 1016.5
20260831162359 25 122 14.5 33.8 0.00 0.43 0.05 77 1016.4
20260831161627 25 76 20.9 27.4 0.00 0.43 0.05 78 1016.4
20260831161116 25 66 12.9 38.6 0.00 0.43 0.05 78 1015.9
20260831160615 25 72 17.7 38.6 0.00 0.43 0.05 78 1016.3
20260831160117 25 114 9.7 38.6 0.00 0.43 0.05 76 1016.1
20260831155615 25 125 12.9 33.8 0.00 0.43 0.05 77 1016.1
20260831155115 25 83 16.1 38.6 0.00 0.43 0.05 78 1016.1
20260831154616 25 107 8.0 38.6 0.00 0.43 0.05 78 1016.0
20260831154123 25 63 12.9 32.2 0.00 0.43 0.05 79 1016.3
20260831154117 25 99 14.5 27.4 0.00 0.43 0.05 77 1016.1
20260831153115 25 86 11.3 32.2 0.00 0.43 0.05 78 1016.1
20260831152615 25 142 12.9 32.2 0.00 0.43 0.05 78 1016.4
20260831152116 25 89 14.5 37.0 0.00 0.43 0.05 78 1016.4
20260831151615 25 146 8.0 37.0 0.00 0.43 0.05 79 1016.2
20260831151353 25 125 12.9 33.8 0.00 0.43 0.05 78 1016.1
20260831151115 25 97 17.7 33.8 0.00 0.43 0.05 78 1016.1
20260831150115 25 85 20.9 33.8 0.00 0.43 0.05 78 1016.2
20260831145615 25 72 16.1 38.6 0.00 0.43 0.05 79 1016.1
20260831145115 25 85 14.5 38.6 0.00 0.43 0.05 79 1015.9
20260831144616 25 91 14.5 33.8 0.00 0.43 0.05 79 1015.8
20260831144116 25 80 17.7 33.8 0.00 0.43 0.05 80 1015.9
20260831143846 25 112 17.7 30.6 0.00 0.43 0.05 80 1016.0
20260831143116 25 28 11.3 30.6 0.00 0.43 0.05 80 1015.7
20260831142617 25 138 9.7 27.4 0.00 0.43 0.05 79 1015.8
20260831142115 25 76 16.1 30.6 0.00 0.43 0.05 78 1015.9
20260831141616 25 91 6.4 33.8 0.00 0.43 0.05 78 1015.8
20260831141116 25 110 22.5 33.8 0.00 0.43 0.05 78 1015.7
20260831140616 25 73 17.7 33.8 0.00 0.43 0.05 79 1015.6
20260831140116 25 101 14.5 40.2 0.00 0.43 0.05 80 1015.7
20260831135616 25 66 14.5 40.2 0.00 0.43 0.05 80 1015.6
20260831135115 25 53 19.3 33.8 0.00 0.43 0.05 80 1015.8
20260831134616 25 80 16.1 33.8 0.00 0.43 0.05 81 1015.8
20260831134347 25 84 25.7 32.2 0.00 0.43 0.05 82 1015.8
20260831133617 25 117 12.9 32.2 0.00 0.43 0.05 83 1015.9
20260831133116 25 71 19.3 33.8 0.00 0.43 0.05 82 1015.9
20260831132616 25 88 14.5 33.8 0.00 0.43 0.05 82 1015.7
20260831132115 25 28 20.9 33.8 0.00 0.43 0.05 81 1015.9
20260831131846 25 85 19.3 33.8 0.00 0.43 0.05 82 1015.8
20260831131115 25 110 19.3 33.8 0.00 0.43 0.05 83 1015.8
20260831130847 25 61 17.7 33.8 0.00 0.43 0.05 83 1015.8
20260831130347 25 93 19.3 30.6 0.00 0.43 0.05 83 1016.0
20260831125615 25 105 12.9 30.6 0.00 0.43 0.05 84 1016.0
20260831125116 25 123 14.5 20.9 0.00 0.43 0.05 86 1016.1
20260831124616 25 111 6.4 22.5 0.00 0.43 0.05 86 1016.2
20260831124116 25 100 9.7 22.5 0.00 0.43 0.05 86 1016.4
20260831123616 24 124 6.4 22.5 0.00 0.43 0.05 86 1016.3
20260831123116 24 135 9.7 24.1 0.00 0.43 0.05 85 1016.3
20260831122616 24 100 8.0 24.1 0.00 0.43 0.05 85 1016.6
20260831122116 24 127 8.0 24.1 0.00 0.43 0.05 85 1016.4
20260831121618 24 106 9.7 24.1 0.00 0.43 0.05 85 1016.6
20260831121346 24 137 8.0 25.7 0.00 0.43 0.05 85 1016.7
20260831120847 24 124 12.9 25.7 0.00 0.43 0.05 85 1016.8
20260831120116 24 102 9.7 27.4 0.00 0.43 0.05 85 1016.6
20260831115848 24 111 12.9 27.4 0.00 0.43 0.05 85 1016.8
20260831115348 24 69 8.0 25.7 0.00 0.43 0.05 85 1016.9
20260831114616 24 97 14.5 27.4 0.00 0.43 0.05 85 1016.9
20260831114116 25 76 8.0 27.4 0.00 0.43 0.05 86 1017.0
20260831113616 25 108 8.0 27.4 0.00 0.43 0.05 85 1016.8
20260831113346 25 110 8.0 25.7 0.00 0.43 0.05 85 1016.9
20260831112615 24 87 17.7 25.7 0.00 0.43 0.05 85 1017.0
20260831112115 24 87 16.1 32.2 0.00 0.43 0.05 85 1017.0
20260831111615 24 90 17.7 32.2 0.00 0.43 0.05 85 1017.1
20260831111116 24 113 12.9 24.1 0.03 0.43 0.05 86 1017.1
20260831110615 24 90 6.4 24.1 0.03 0.43 0.05 86 1017.1
20260831110116 24 80 12.9 32.2 0.05 0.43 0.05 86 1017.1
20260831105616 24 87 12.9 33.8 0.05 0.43 0.05 87 1017.5
20260831105115 23 109 19.3 33.8 0.05 0.43 0.05 87 1017.2
20260831104615 23 120 17.7 33.8 0.05 0.43 0.05 88 1017.4
20260831104115 23 114 11.3 27.4 0.05 0.43 0.05 89 1017.6
20260831103846 23 96 14.5 24.1 0.05 0.43 0.05 90 1017.6
20260831103118 22 137 9.7 25.7 0.05 0.43 0.05 90 1017.7
20260831102616 23 104 14.5 27.4 0.05 0.43 0.05 90 1017.9
20260831102115 23 157 12.9 33.8 0.05 0.43 0.03 90 1018.1
20260831101615 23 97 12.9 45.1 0.05 0.43 0.03 90 1018.1
20260831101115 23 85 19.3 45.1 0.03 0.43 0.03 90 1017.9
20260831100615 23 137 20.9 45.1 0.03 0.41 0.00 90 1017.8
20260831100115 23 142 20.9 45.1 0.08 0.41 0.00 89 1017.9
20260831095615 23 150 0.0 14.5 0.08 0.41 0.41 90 1017.6
20260831095115 23 115 3.2 16.1 0.08 0.41 0.41 90 1017.7
20260831094616 23 133 6.4 16.1 0.08 0.41 0.41 90 1018.0
20260831094116 23 140 0.0 14.5 0.08 0.41 0.41 90 1017.9
20260831093616 23 122 8.0 17.7 0.08 0.41 0.41 90 1017.8
20260831093116 23 131 0.0 17.7 0.08 0.41 0.41 90 1018.1
20260831092616 22 140 0.0 20.9 0.08 0.38 0.38 90 1018.3
20260831092347 22 120 4.8 22.5 0.08 0.38 0.38 90 1018.4
20260831091616 22 143 6.4 27.4 0.08 0.38 0.38 89 1018.5
20260831091347 22 58 22.5 32.2 0.08 0.38 0.38 88 1018.8
20260831090615 23 111 25.7 45.1 0.05 0.38 0.38 87 1018.5
20260831090115 23 92 12.9 45.1 0.00 0.33 0.38 86 1018.7
20260831085615 24 133 16.1 33.8 0.00 0.33 0.33 87 1018.7
20260831085115 24 123 16.1 25.7 0.00 0.33 0.33 88 1018.2
20260831084615 24 92 6.4 24.1 0.00 0.33 0.33 88 1018.1
20260831084115 24 116 16.1 24.1 0.05 0.33 0.33 88 1018.0
20260831083615 24 74 0.0 22.5 0.15 0.33 0.33 89 1018.1
20260831083115 24 77 9.7 22.5 0.15 0.33 0.33 89 1018.3
20260831082615 23 49 12.9 24.1 0.20 0.33 0.33 89 1018.2
20260831082116 23 72 9.7 24.1 0.23 0.33 0.33 89 1018.2
20260831081846 23 103 8.0 22.5 0.23 0.33 0.33 90 1018.3
20260831081117 23 88 8.0 24.1 0.23 0.33 0.33 90 1018.4
20260831080846 23 91 6.4 24.1 0.23 0.33 0.33 90 1018.4
20260831080115 23 104 1.6 22.5 0.23 0.33 0.33 90 1018.3
20260831075615 23 91 12.9 24.1 0.23 0.33 0.33 89 1018.4
20260831075116 23 99 12.9 32.2 0.23 0.33 0.33 89 1018.6
20260831074615 23 126 12.9 41.8 0.23 0.30 0.30 89 1018.4
20260831074115 23 67 8.0 41.8 0.18 0.28 0.28 87 1018.7
20260831073616 24 90 6.4 27.4 0.08 0.15 0.15 87 1018.2
20260831073115 25 114 14.5 32.2 0.08 0.15 0.15 86 1018.4
20260831072616 25 143 22.5 32.2 0.03 0.10 0.10 84 1018.4
20260831072347 25 75 16.1 27.4 0.00 0.08 0.08 83 1018.0
20260831071615 25 141 9.7 22.5 0.00 0.08 0.08 83 1018.2
20260831071115 25 108 9.7 27.4 0.00 0.08 0.08 83 1018.1
20260831070847 25 92 6.4 27.4 0.00 0.08 0.08 82 1018.3
20260831070347 25 96 12.9 27.4 0.00 0.08 0.08 82 1018.2
20260831065615 25 79 14.5 30.6 0.00 0.08 0.08 82 1017.9
20260831065115 25 90 14.5 33.8 0.00 0.08 0.08 82 1017.9
20260831064846 25 66 12.9 33.8 0.00 0.08 0.08 82 1018.0
20260831064115 25 108 14.5 27.4 0.00 0.08 0.08 82 1017.7
20260831063616 25 79 14.5 30.6 0.00 0.08 0.08 83 1017.7
20260831063116 25 66 14.5 27.4 0.00 0.08 0.08 83 1017.8
20260831062848 25 49 9.7 25.7 0.00 0.08 0.08 86 1017.6
20260831062116 25 54 11.3 25.7 0.00 0.08 0.08 86 1017.7
20260831061616 24 115 11.3 17.7 0.00 0.08 0.08 85 1017.5
20260831061115 25 136 9.7 25.7 0.00 0.08 0.08 85 1017.5
20260831060615 25 125 6.4 25.7 0.00 0.08 0.08 85 1017.4
20260831060347 25 50 6.4 22.5 0.03 0.08 0.08 86 1017.3
20260831055616 25 123 8.0 22.5 0.05 0.08 0.08 86 1017.5
20260831055115 25 85 9.7 24.1 0.05 0.08 0.08 86 1017.6
20260831054615 25 89 9.7 24.1 0.05 0.08 0.08 86 1017.5
20260831054115 24 103 11.3 22.5 0.05 0.08 0.08 86 1017.2
20260831053614 24 132 12.9 22.5 0.05 0.08 0.08 87 1017.3
20260831053114 24 127 6.4 24.1 0.05 0.08 0.08 87 1017.1
20260831052614 24 120 9.7 24.1 0.05 0.08 0.08 87 1017.2
20260831052114 24 124 0.0 22.5 0.05 0.08 0.08 88 1017.2
20260831051614 24 109 1.6 22.5 0.05 0.08 0.08 88 1017.0
20260831051114 24 55 8.0 17.7 0.05 0.08 0.08 88 1016.8
20260831050603 24 54 9.7 22.5 0.05 0.08 0.08 87 1016.9
20260831045833 25 131 14.5 27.4 0.00 0.05 0.05 84 1016.7
20260831045103 25 83 14.5 27.4 0.00 0.03 0.03 83 1017.0
20260831044602 25 64 9.7 32.2 0.00 0.03 0.03 83 1016.9
20260831044102 25 100 17.7 32.2 0.00 0.03 0.03 83 1016.8
20260831043602 25 98 17.7 27.4 0.00 0.03 0.03 84 1016.6
20260831043103 25 89 12.9 27.4 0.00 0.03 0.03 84 1016.6
20260831042834 25 58 11.3 33.8 0.00 0.03 0.03 85 1016.7
20260831042335 25 66 14.5 33.8 0.00 0.03 0.03 85 1016.6
20260831041839 25 46 8.0 33.8 0.03 0.03 0.03 82 1016.6
20260831041603 25 74 9.7 33.8 0.03 0.03 0.03 83 1016.5
20260831040602 25 96 6.4 37.0 0.03 0.03 0.03 83 1016.4
20260831035603 25 82 27.4 37.0 0.03 0.03 0.03 85 1016.5
20260831035103 25 92 19.3 37.0 0.03 0.03 0.03 85 1016.5
20260831034602 25 108 9.7 37.0 0.03 0.03 0.03 85 1016.4
20260831034103 25 107 22.5 33.8 0.00 0.03 0.03 85 1016.0
20260831033833 25 73 17.7 27.4 0.00 0.03 0.03 85 1015.9
20260831033102 25 74 19.3 27.4 0.00 0.03 0.03 86 1016.0
20260831032601 25 91 9.7 32.2 0.00 0.03 0.03 86 1015.9
20260831032103 25 30 19.3 33.8 0.00 0.03 0.03 86 1016.1
20260831031602 26 39 17.7 33.8 0.00 0.00 0.03 84 1016.2
20260831031059 26 82 16.1 30.6 0.00 0.00 0.00 80 1015.9
20260831030600 26 68 11.3 30.6 0.00 0.00 0.00 78 1016.1
20260831030100 26 94 14.5 30.6 0.00 0.00 0.00 77 1016.0
20260831025831 26 70 11.3 20.9 0.00 0.00 0.00 78 1016.0
20260831025101 26 135 11.3 24.1 0.00 0.00 0.00 78 1016.1
20260831024830 26 112 17.7 24.1 0.00 0.00 0.00 78 1016.0
20260831024059 26 79 6.4 27.4 0.00 0.00 0.00 78 1016.1
20260831023600 26 136 14.5 27.4 0.00 0.00 0.00 77 1016.0
20260831023059 26 54 8.0 22.5 0.00 0.00 0.00 77 1016.0
20260831022836 26 102 8.0 24.1 0.00 0.00 0.00 76 1016.2
20260831022559 26 90 9.7 22.5 0.00 0.00 0.00 76 1016.1
20260831021559 26 146 14.5 27.4 0.00 0.00 0.00 75 1016.1
20260831021058 26 139 8.0 38.6 0.00 0.00 0.00 74 1016.1
20260831020559 26 79 14.5 38.6 0.00 0.00 0.00 76 1016.5
20260831020059 26 115 16.1 33.8 0.00 0.00 0.00 76 1016.1
20260831015601 26 79 14.5 22.5 0.00 0.00 0.00 77 1016.2
20260831015046 26 62 11.3 24.1 0.00 0.00 0.00 76 1016.1
20260831014545 26 83 8.0 37.0 0.00 0.00 0.00 77 1016.3
20260831014045 26 90 11.3 37.0 0.00 0.00 0.00 77 1016.2
20260831013816 27 81 17.7 37.0 0.00 0.00 0.00 74 1016.1
20260831013046 27 49 16.1 27.4 0.00 0.00 0.00 75 1016.1
20260831012546 27 62 12.9 32.2 0.00 0.00 0.00 72 1016.1
20260831012046 28 105 17.7 40.2 0.00 0.00 0.00 73 1016.0
20260831011804 27 115 17.7 40.2 0.00 0.00 0.00 73 1016.3
20260831011033 27 107 9.7 27.4 0.00 0.00 0.00 73 1016.6
20260831010534 27 91 14.5 27.4 0.00 0.00 0.00 72 1016.4
20260831010034 28 88 16.1 32.2 0.00 0.00 0.00 71 1016.7
20260831005805 28 105 20.9 32.2 0.00 0.00 0.00 71 1016.4
20260831005035 28 62 9.7 25.7 0.00 0.00 0.00 71 1016.5
20260831004534 28 91 12.9 25.7 0.00 0.00 0.00 70 1016.5
20260831004252 28 73 9.7 25.7 0.00 0.00 0.00 71 1016.3
20260831003522 28 26 6.4 27.4 0.00 0.00 0.00 73 1016.4
20260831003022 27 103 14.5 32.2 0.00 0.00 0.00 72 1016.9
20260831002521 27 66 12.9 32.2 0.00 0.00 0.00 73 1016.6
20260831002022 27 82 11.3 27.4 0.00 0.00 0.00 73 1016.9
20260831001522 27 76 14.5 30.6 0.00 0.00 0.00 73 1016.9
20260831001022 27 113 12.9 30.6 0.00 0.00 0.00 74 1017.1
20260831000509 27 82 12.9 27.4 0.00 0.00 0.00 74 1017.1
20260831000009 27 76 12.9 30.6 0.00 0.00 0.00 74 1016.9
20260830235509 27 157 8.0 30.6 0.00 0.00 0.00 74 1017.2
20260830235009 27 115 17.7 30.6 0.00 0.00 0.00 73 1017.1
20260830234509 28 73 17.7 30.6 0.00 0.00 0.00 73 1017.0